GW0069 Weather Reports


time (UTC)temp
F
wind
direction
speed
knots
gust
knots
rain 1hr
in
rain 24hr
in
rain mn
in
humidity
%
barometer
mb
20260507052343 50 200 2.6 6.1 0.00 0.00 0.00 36 1021.5
20260507052115 49 170 0.9 3.5 0.00 0.00 0.00 33 1021.5
20260507051342 49 138 0.9 2.6 0.00 0.00 0.00 33 1021.5
20260507050842 50 138 0.9 2.6 0.00 0.00 0.00 32 1021.4
20260507050612 51 154 0.0 1.7 0.00 0.00 0.00 32 1021.3
20260507045842 51 154 0.0 1.7 0.00 0.00 0.00 30 1021.3
20260507045342 52 154 0.0 4.3 0.00 0.00 0.00 31 1021.3
20260507044840 52 155 0.9 4.3 0.00 0.00 0.00 30 1021.2
20260507044341 53 159 0.9 4.3 0.00 0.00 0.00 28 1021.3
20260507043839 53 140 0.9 4.3 0.00 0.00 0.00 28 1021.3
20260507043338 53 99 0.9 5.2 0.00 0.00 0.00 29 1021.2
20260507042837 52 97 0.9 5.2 0.00 0.00 0.00 29 1021.2
20260507042337 52 102 0.9 4.3 0.00 0.00 0.00 29 1021.2
20260507042105 52 101 0.9 2.6 0.00 0.00 0.00 30 1021.2
20260507041334 52 87 0.0 1.7 0.00 0.00 0.00 31 1021.0
20260507040833 51 74 0.0 4.3 0.00 0.00 0.00 32 1020.9
20260507040334 51 0 0.0 4.3 0.00 0.00 0.00 32 1020.9
20260507035833 51 346 0.0 2.6 0.00 0.00 0.00 33 1020.8
20260507035334 52 338 0.0 1.7 0.00 0.00 0.00 32 1020.9
20260507034833 52 327 0.0 1.7 0.00 0.00 0.00 32 1020.8
20260507034331 52 323 0.0 1.7 0.00 0.00 0.00 33 1020.8
20260507033831 52 323 0.0 2.6 0.00 0.00 0.00 32 1020.8
20260507033330 52 319 0.0 2.6 0.00 0.00 0.00 32 1020.7
20260507032823 52 317 0.0 2.6 0.00 0.00 0.00 32 1020.5
20260507032554 53 300 0.0 0.9 0.00 0.00 0.00 31 1020.5
20260507031824 53 298 0.0 1.7 0.00 0.00 0.00 30 1020.5
20260507031322 54 296 0.9 3.5 0.00 0.00 0.00 30 1020.4
20260507030821 55 296 2.6 6.1 0.00 0.00 0.00 28 1020.3
20260507030551 55 295 2.6 6.1 0.00 0.00 0.00 28 1020.3
20260507025820 56 292 1.7 4.3 0.00 0.00 0.00 28 1020.2
20260507025548 56 292 1.7 5.2 0.00 0.00 0.00 28 1020.0
20260507024817 56 291 2.6 6.1 0.00 0.00 0.00 28 1019.9
20260507024318 56 290 1.7 6.1 0.00 0.00 0.00 28 1019.9
20260507023817 56 290 1.7 6.1 0.00 0.00 0.00 28 1019.8
20260507023317 57 290 1.7 6.1 0.00 0.00 0.00 28 1019.8
20260507023049 57 285 0.9 3.5 0.00 0.00 0.00 31 1019.7
20260507022317 57 285 0.9 3.5 0.00 0.00 0.00 30 1019.7
20260507021818 58 285 0.0 1.7 0.00 0.00 0.00 31 1019.5
20260507021318 58 285 0.0 2.6 0.00 0.00 0.00 31 1019.4
20260507020818 59 285 0.0 2.6 0.00 0.00 0.00 30 1019.4
20260507020318 59 285 0.0 2.6 0.00 0.00 0.00 29 1019.4
20260507015817 60 285 0.0 2.6 0.00 0.00 0.00 29 1019.4
20260507015319 60 285 1.7 7.8 0.00 0.00 0.00 29 1019.3
20260507014817 60 285 2.6 7.8 0.00 0.00 0.00 28 1019.4
20260507014317 60 284 1.7 5.2 0.00 0.00 0.00 27 1019.3
20260507013818 61 283 1.7 7.0 0.00 0.00 0.00 27 1019.2
20260507013318 62 282 2.6 7.8 0.00 0.00 0.00 26 1019.2
20260507012815 63 306 1.7 7.8 0.00 0.00 0.00 25 1019.2
20260507012315 65 311 0.9 4.3 0.00 0.00 0.00 23 1019.0
20260507012047 67 316 0.0 2.6 0.00 0.00 0.00 23 1019.0
20260507011316 68 317 0.0 0.9 0.00 0.00 0.00 22 1019.2
20260507010815 68 317 0.0 2.6 0.00 0.00 0.00 23 1018.9
20260507010314 69 317 0.0 2.6 0.00 0.00 0.00 22 1019.0
20260507005814 68 316 0.0 0.0 0.00 0.00 0.00 22 1018.8
20260507005313 66 316 0.0 2.6 0.00 0.00 0.00 23 1018.8
20260507004814 64 316 0.0 2.6 0.00 0.00 0.00 25 1018.7
20260507004314 62 315 1.7 5.2 0.00 0.00 0.00 26 1018.8
20260507004043 61 315 3.5 6.1 0.00 0.00 0.00 27 1018.7
20260507003311 61 313 3.5 7.0 0.00 0.00 0.00 27 1018.7
20260507002811 61 313 3.5 9.6 0.00 0.00 0.00 27 1018.7
20260507002308 62 316 3.5 9.6 0.00 0.00 0.00 26 1018.7
20260507001805 62 355 2.6 8.7 0.00 0.00 0.00 26 1018.5
20260507001303 62 269 0.9 7.8 0.00 0.00 0.00 26 1018.5
20260507000804 61 268 1.7 7.8 0.00 0.01 0.00 26 1018.5
20260507000302 60 323 4.3 8.7 0.00 0.01 0.00 26 1018.4
20260506235800 60 323 6.1 13.9 0.00 0.01 0.00 26 1018.4
20260506235253 61 321 5.2 13.9 0.00 0.02 0.00 25 1018.4
20260506234753 63 290 5.2 10.4 0.00 0.02 0.00 25 1018.3
20260506234249 63 290 7.0 13.9 0.00 0.02 0.00 25 1018.2
20260506233749 62 300 7.0 13.9 0.00 0.02 0.00 24 1018.3
20260506233249 62 290 5.2 12.2 0.00 0.02 0.00 24 1018.3
20260506232749 62 235 6.1 13.0 0.00 0.02 0.00 24 1018.2
20260506232250 62 305 6.1 14.8 0.00 0.02 0.00 24 1018.3
20260506231751 62 301 6.1 14.8 0.00 0.02 0.00 24 1018.3
20260506231249 62 265 6.1 12.2 0.00 0.02 0.00 23 1018.2
20260506230749 63 271 6.1 12.2 0.00 0.03 0.00 23 1018.2
20260506230249 63 306 7.0 12.2 0.00 0.03 0.00 23 1018.2
20260506225749 62 313 7.0 13.9 0.00 0.03 0.00 23 1018.2
20260506225249 62 313 7.0 17.4 0.00 0.03 0.00 23 1018.2
20260506224750 62 243 6.1 17.4 0.00 0.04 0.00 23 1018.0
20260506224520 62 318 6.1 12.2 0.00 0.04 0.00 25 1018.2
20260506223749 61 204 5.2 12.2 0.00 0.04 0.00 24 1018.0
20260506223249 62 306 6.1 15.6 0.00 0.04 0.00 24 1018.0
20260506222749 62 271 7.0 15.6 0.00 0.05 0.00 24 1018.2
20260506222249 62 277 6.1 13.9 0.00 0.05 0.00 24 1018.0
20260506222018 62 292 5.2 12.2 0.00 0.05 0.00 25 1018.2
20260506221247 62 250 3.5 12.2 0.00 0.06 0.00 24 1018.3
20260506220747 62 343 5.2 12.2 0.00 0.06 0.00 26 1018.3
20260506220247 61 348 7.8 14.8 0.00 0.07 0.00 25 1018.4
20260506215747 61 284 7.0 14.8 0.00 0.07 0.00 25 1018.4
20260506215245 61 292 7.0 14.8 0.00 0.07 0.00 25 1018.4
20260506214745 61 297 7.8 13.9 0.00 0.08 0.00 26 1018.5
20260506214245 61 249 7.0 13.0 0.00 0.08 0.00 26 1018.5
20260506213745 60 0 7.8 17.4 0.00 0.09 0.00 27 1018.7
20260506213245 60 284 8.7 17.4 0.00 0.09 0.00 28 1018.7
20260506212745 60 313 7.8 14.8 0.00 0.09 0.00 28 1018.5
20260506212246 60 277 7.0 14.8 0.00 0.09 0.00 27 1018.7
20260506211743 60 297 7.0 18.2 0.00 0.09 0.00 28 1018.5
20260506211241 60 347 7.0 18.2 0.00 0.09 0.00 27 1018.7
20260506210741 60 273 7.0 17.4 0.00 0.09 0.00 30 1018.5
20260506210241 60 301 6.1 17.4 0.00 0.09 0.00 30 1018.5
20260506210012 60 319 6.1 13.0 0.00 0.09 0.00 29 1018.7
20260506205241 59 294 8.7 20.0 0.00 0.09 0.00 30 1018.7
20260506204740 58 304 7.8 20.0 0.00 0.09 0.00 31 1018.5
20260506204237 59 308 5.2 13.9 0.00 0.09 0.00 31 1018.5
20260506203737 59 275 7.0 13.9 0.00 0.09 0.00 31 1018.7
20260506203237 59 266 7.8 20.0 0.00 0.09 0.00 29 1018.5
20260506202738 60 306 7.0 20.0 0.00 0.09 0.00 31 1018.7
20260506202237 60 252 6.1 13.9 0.00 0.09 0.00 30 1018.7
20260506201733 60 290 5.2 13.9 0.00 0.09 0.00 29 1018.7
20260506201233 60 300 4.3 13.9 0.00 0.09 0.00 29 1018.5
20260506200733 60 268 5.2 18.2 0.00 0.09 0.00 29 1018.5
20260506200234 58 0 7.0 18.2 0.00 0.09 0.00 29 1018.5
20260506195734 58 269 7.0 16.5 0.00 0.09 0.00 28 1018.5
20260506195233 58 235 7.8 17.4 0.00 0.09 0.00 29 1018.5
20260506195005 58 0 6.1 17.4 0.00 0.09 0.00 29 1018.5
20260506194840 57 246 7.0 15.6 0.00 0.09 0.00 31 1018.5
20260506194504 58 301 4.3 11.3 0.00 0.09 0.00 30 1018.7
20260506193233 57 310 8.7 21.7 0.00 0.09 0.00 31 1018.7
20260506192739 57 277 7.0 16.5 0.00 0.09 0.00 32 1018.5
20260506192732 57 288 9.6 21.7 0.00 0.09 0.00 31 1018.5
20260506192233 57 327 7.8 19.1 0.00 0.09 0.00 33 1018.5
20260506191504 57 290 6.1 16.5 0.00 0.09 0.00 31 1018.5
20260506190733 57 251 7.0 12.2 0.00 0.09 0.00 32 1018.4
20260506190231 57 261 8.7 21.7 0.00 0.09 0.00 31 1018.5
20260506185731 57 306 7.0 21.7 0.00 0.09 0.00 33 1018.5
20260506185231 57 280 5.2 11.3 0.00 0.09 0.00 35 1018.4
20260506185002 57 275 6.1 13.0 0.00 0.09 0.00 33 1018.4
20260506184231 57 286 5.2 13.0 0.00 0.09 0.00 35 1018.5
20260506184003 56 255 4.3 8.7 0.00 0.09 0.00 36 1018.4
20260506183231 56 295 5.2 13.0 0.00 0.09 0.00 37 1018.5
20260506182730 55 252 5.2 13.0 0.00 0.09 0.00 36 1018.5
20260506182456 55 238 5.2 11.3 0.00 0.09 0.00 36 1018.7
20260506181723 55 275 6.1 13.0 0.00 0.09 0.00 38 1018.5
20260506181222 54 311 7.0 20.0 0.00 0.09 0.00 39 1018.5
20260506180720 54 301 7.0 20.0 0.00 0.09 0.00 38 1018.7
20260506180221 54 350 7.0 13.0 0.00 0.09 0.00 38 1018.7
20260506175721 53 304 7.8 13.9 0.00 0.09 0.00 38 1018.7
20260506175451 53 271 7.0 13.9 0.00 0.09 0.00 39 1018.5
20260506174721 54 331 5.2 11.3 0.00 0.09 0.00 38 1018.5
20260506174221 54 270 6.1 15.6 0.00 0.09 0.00 41 1018.5
20260506173721 53 292 7.0 15.6 0.00 0.09 0.00 41 1018.4
20260506173451 53 306 6.1 13.9 0.00 0.09 0.00 40 1018.5
20260506172725 53 250 7.0 15.6 0.00 0.09 0.00 39 1018.4
20260506172721 53 303 7.0 15.6 0.00 0.09 0.00 41 1018.5
20260506171721 53 315 5.2 13.0 0.00 0.09 0.00 41 1018.3
20260506171221 52 315 7.0 14.8 0.00 0.09 0.00 42 1018.2
20260506170720 52 255 7.0 14.8 0.00 0.09 0.00 41 1018.2
20260506170221 52 220 5.2 13.9 0.00 0.09 0.00 41 1018.0
20260506165721 52 304 6.1 13.0 0.00 0.09 0.00 42 1018.0
20260506165221 51 251 7.0 15.6 0.00 0.09 0.00 42 1018.2
20260506164721 51 282 7.0 15.6 0.00 0.09 0.00 43 1018.2
20260506164220 50 282 7.8 13.9 0.00 0.09 0.00 42 1018.0
20260506163719 50 296 8.7 16.5 0.00 0.09 0.00 42 1017.9
20260506163450 50 302 9.6 16.5 0.00 0.09 0.00 42 1017.8
20260506162718 50 287 7.8 16.5 0.00 0.09 0.00 43 1017.8
20260506162449 50 318 7.0 14.8 0.00 0.09 0.00 44 1017.8
20260506161719 49 301 7.0 15.6 0.00 0.09 0.00 44 1017.8
20260506161219 49 295 7.0 13.9 0.00 0.09 0.00 45 1017.8
20260506160718 49 261 7.0 13.0 0.00 0.09 0.00 46 1017.7
20260506160444 48 274 7.0 13.0 0.00 0.09 0.00 46 1017.8
20260506155713 48 277 6.1 15.6 0.00 0.09 0.00 46 1017.7
20260506155443 48 321 6.1 15.6 0.00 0.09 0.00 47 1017.7
20260506154713 47 258 6.1 13.0 0.00 0.09 0.00 47 1017.7
20260506154213 47 277 6.1 13.0 0.00 0.09 0.00 48 1017.7
20260506153713 47 252 6.1 13.9 0.00 0.09 0.00 50 1017.7
20260506153212 47 278 6.1 13.9 0.00 0.09 0.00 48 1017.7
20260506152712 46 265 6.1 16.5 0.00 0.09 0.00 50 1017.7
20260506152212 46 257 6.1 16.5 0.00 0.09 0.00 50 1017.7
20260506151944 46 269 4.3 12.2 0.00 0.09 0.00 51 1017.7
20260506151213 45 276 3.5 10.4 0.00 0.09 0.00 53 1017.6
20260506150713 45 285 4.3 10.4 0.00 0.09 0.00 53 1017.6
20260506150212 44 277 5.2 10.4 0.00 0.09 0.00 53 1017.6
20260506145710 44 251 5.2 10.4 0.00 0.09 0.00 54 1017.4
20260506145442 44 273 6.1 10.4 0.00 0.09 0.00 54 1017.4
20260506144710 44 248 6.1 10.4 0.00 0.09 0.00 54 1017.4
20260506144208 43 261 6.1 12.2 0.00 0.09 0.00 55 1017.4
20260506143709 43 269 5.2 12.2 0.00 0.09 0.00 54 1017.4
20260506143208 43 268 4.3 9.6 0.00 0.09 0.00 56 1017.4
20260506142707 43 277 5.2 12.2 0.00 0.09 0.00 56 1017.4
20260506142206 42 292 5.2 12.2 0.00 0.09 0.00 56 1017.3
20260506141706 42 289 3.5 11.3 0.00 0.09 0.00 57 1017.3
20260506141437 42 293 2.6 8.7 0.00 0.09 0.00 59 1017.2
20260506140706 42 310 2.6 8.7 0.00 0.09 0.00 58 1017.2
20260506140437 42 278 2.6 8.7 0.00 0.09 0.00 60 1017.1
20260506135706 41 257 3.5 8.7 0.00 0.09 0.00 60 1017.1
20260506135205 41 306 3.5 8.7 0.00 0.09 0.00 60 1017.2
20260506134704 41 276 2.6 6.1 0.00 0.09 0.00 61 1017.1
20260506134202 40 311 2.6 6.1 0.00 0.09 0.00 61 1017.1
20260506133702 40 278 2.6 5.2 0.00 0.09 0.00 62 1016.9
20260506133202 40 291 2.6 7.0 0.00 0.09 0.00 62 1016.9
20260506132702 39 300 2.6 7.0 0.00 0.09 0.00 63 1016.9
20260506132202 39 283 2.6 6.1 0.00 0.09 0.00 64 1016.9
20260506131703 38 286 2.6 6.1 0.00 0.09 0.00 65 1016.9
20260506131202 38 279 2.6 6.1 0.00 0.09 0.00 65 1016.8
20260506130702 38 281 2.6 6.1 0.00 0.09 0.00 66 1016.8
20260506130432 37 281 2.6 4.3 0.00 0.09 0.00 66 1016.8
20260506125702 37 276 2.6 4.3 0.00 0.09 0.00 66 1016.8
20260506125202 37 279 2.6 4.3 0.00 0.09 0.00 67 1016.7
20260506124702 37 275 2.6 4.3 0.00 0.09 0.00 67 1016.8
20260506124202 37 284 2.6 5.2 0.00 0.09 0.00 67 1016.7
20260506123700 37 290 2.6 5.2 0.00 0.09 0.00 67 1016.6
20260506123200 37 269 2.6 7.0 0.00 0.09 0.00 68 1016.6
20260506122700 37 302 2.6 7.0 0.00 0.09 0.00 68 1016.4
20260506122158 36 280 2.6 7.0 0.00 0.09 0.00 69 1016.4
20260506121700 36 304 2.6 7.0 0.00 0.09 0.00 69 1016.3
20260506121154 36 288 2.6 4.3 0.00 0.09 0.00 69 1016.2
20260506120654 36 280 2.6 4.3 0.00 0.09 0.00 69 1016.1
20260506120154 36 287 1.7 4.3 0.00 0.09 0.00 68 1016.1
20260506115654 37 284 1.7 3.5 0.00 0.09 0.00 68 1016.1
20260506115425 37 281 1.7 4.3 0.00 0.09 0.00 68 1016.1
20260506114654 37 280 2.6 5.2 0.00 0.09 0.00 68 1016.2
20260506114423 37 275 2.6 7.8 0.00 0.09 0.00 68 1016.1
20260506113652 37 277 3.5 7.8 0.00 0.09 0.00 68 1016.1
20260506113422 37 264 2.6 6.1 0.00 0.09 0.00 68 1016.1
20260506112652 37 299 2.6 6.1 0.00 0.09 0.00 68 1016.2
20260506112152 37 272 3.5 7.0 0.00 0.09 0.00 68 1016.1
20260506111652 37 279 3.5 7.0 0.00 0.09 0.00 68 1015.9
20260506111150 37 265 3.5 7.0 0.00 0.09 0.00 68 1015.9
20260506110918 37 273 3.5 7.0 0.00 0.09 0.00 68 1015.9
20260506110419 37 257 3.5 7.0 0.00 0.09 0.00 68 1015.9
20260506105648 37 262 3.5 7.0 0.00 0.09 0.00 68 1016.1
20260506105148 37 275 3.5 7.8 0.00 0.09 0.00 69 1015.9
20260506104649 37 277 2.6 7.8 0.00 0.09 0.00 69 1015.8
20260506104149 37 270 1.7 5.2 0.00 0.09 0.00 69 1015.8
20260506103648 37 272 1.7 4.3 0.00 0.09 0.00 69 1015.8
20260506103148 37 264 2.6 4.3 0.00 0.09 0.00 69 1015.7
20260506102920 37 263 2.6 4.3 0.00 0.09 0.00 69 1015.6
20260506102148 37 268 2.6 4.3 0.00 0.09 0.00 69 1015.6
20260506101647 37 268 2.6 4.3 0.00 0.09 0.00 69 1015.6
20260506101148 37 271 1.7 3.5 0.00 0.09 0.00 70 1015.6
20260506100919 37 269 1.7 4.3 0.00 0.09 0.00 70 1015.6
20260506100144 37 275 1.7 4.3 0.00 0.09 0.00 70 1015.4
20260506095644 37 296 1.7 4.3 0.00 0.09 0.00 69 1015.4
20260506095144 37 274 2.6 6.1 0.00 0.09 0.00 69 1015.4
20260506094642 37 273 2.6 6.1 0.00 0.09 0.00 69 1015.4
20260506094141 37 267 3.5 6.1 0.00 0.09 0.00 69 1015.4
20260506093641 37 278 3.5 6.1 0.00 0.09 0.00 69 1015.3
20260506093141 37 275 3.5 6.1 0.00 0.09 0.00 69 1015.3
20260506092642 37 268 2.6 6.1 0.00 0.09 0.00 70 1015.3
20260506092142 36 270 2.6 6.1 0.00 0.09 0.00 70 1015.3
20260506091642 36 277 2.6 4.3 0.00 0.09 0.00 70 1015.3
20260506091518 36 271 1.7 4.3 0.00 0.09 0.00 70 1015.6
20260506091413 36 281 1.7 4.3 0.00 0.09 0.00 70 1015.6
20260506090413 36 281 1.7 3.5 0.00 0.09 0.00 70 1015.6
20260506085640 36 278 1.7 3.5 0.00 0.09 0.00 70 1015.6
20260506085140 36 272 1.7 3.5 0.00 0.09 0.00 70 1015.4
20260506084909 36 274 2.6 3.5 0.00 0.09 0.00 70 1015.6
20260506084138 36 270 2.6 4.3 0.00 0.09 0.00 69 1015.4
20260506083636 37 274 2.6 5.2 0.00 0.09 0.00 69 1015.6
20260506083136 37 279 2.6 5.2 0.00 0.09 0.00 69 1015.6
20260506082636 37 269 2.6 6.1 0.00 0.09 0.00 68 1015.6
20260506082135 37 261 3.5 6.1 0.00 0.09 0.00 68 1015.7
20260506081636 37 275 2.6 5.2 0.00 0.09 0.00 69 1015.7
20260506081406 37 293 2.6 5.2 0.00 0.09 0.00 69 1015.7
20260506080636 37 270 2.6 5.2 0.00 0.09 0.00 69 1015.7
20260506080406 37 273 2.6 6.1 0.00 0.09 0.00 69 1015.7
20260506073135 37 288 2.6 6.1 0.00 0.09 0.00 69 1015.8
20260506072635 37 290 2.6 7.8 0.00 0.09 0.00 70 1015.8
20260506072135 37 282 3.5 7.8 0.00 0.09 0.00 71 1015.7
20260506071636 37 288 3.5 6.1 0.00 0.09 0.00 71 1015.7
20260506071135 36 277 2.6 6.1 0.00 0.09 0.00 72 1015.7
20260506070906 36 283 2.6 5.2 0.00 0.09 0.00 73 1015.7
20260506070133 36 288 2.6 5.2 0.00 0.09 0.00 74 1015.7
20260506062129 38 262 2.6 5.2 0.00 0.09 0.09 72 1015.3
20260506061629 38 281 2.6 5.2 0.00 0.09 0.09 71 1015.3
20260506061129 38 270 2.6 7.0 0.00 0.09 0.09 72 1015.4
20260506060630 38 253 3.5 7.0 0.00 0.09 0.09 72 1015.3
20260506060129 38 234 3.5 7.0 0.00 0.09 0.09 72 1015.2